Regional Weather Roundup
Issued by NWS

Home | Current Version | Previous Version | Text Only | Print | Product List | Glossary Off
Versions: 1 2 3 4 5 6 7 8 9 10 11 12 13 14 15 16 17 18 19 20 21 22 23 24 25 26 27 28 29 30 31 32 33 34 35 36 37 38 39 40 41 42 43 44 45 46 47 48 49 50

000
ASUS43 KLOT 231808
RWRIL

ILLINOIS REGIONAL WEATHER ROUNDUP
NATIONAL WEATHER SERVICE CHICAGO/ROMEOVILLE IL
100 PM CDT MON APR 23 2018

NOTE: "FAIR" INDICATES FEW OR NO CLOUDS BELOW 12,000 FEET WITH NO
SIGNIFICANT WEATHER AND/OR OBSTRUCTIONS TO VISIBILITY.

* THESE STATIONS ARE NOT UNDER NWS QUALITY CONTROL. THEY ALSO MAY NOT
  REPORT WEATHER SUCH AS PRECIPITATION OR FOG.

ILZ001-002-007-009-015-016-024-231900-
NORTHWEST ILLINOIS

CITY           SKY/WX    TMP DP  RH WIND       PRES   REMARKS
MOLINE         FAIR      70  33  25 NE9       30.10F
6HR MIN TEMP:  46; 6HR MAX TEMP:  70;

STERLING*      FAIR      68  32  26 NE13G20   30.11F
SAVANNA*       FAIR      68  30  24 NE14      30.14F
$$

ILZ003-004-008-010-011-017-018-231900-
NORTH CENTRAL ILLINOIS

CITY           SKY/WX    TMP DP  RH WIND       PRES   REMARKS
ROCKFORD       PTSUNNY   67  29  24 NE12      30.15F
6HR MIN TEMP:  45; 6HR MAX TEMP:  67;

FREEPORT*      FAIR      65  29  25 NE13      30.16F
ROCHELLE*      FAIR      68  33  27 NE15      30.12F
DE KALB*       FAIR      66  30  26 NE14G22   30.13F
PERU*          FAIR      67  34  29 E15       30.10F
$$

ILZ005-006-012>014-019>023-231900-
NORTHEAST ILLINOIS

CITY           SKY/WX    TMP DP  RH WIND       PRES   REMARKS
CHICAGO-OHARE  PTSUNNY   59  29  31 NE15      30.14F
6HR MIN TEMP:  45; 6HR MAX TEMP:  59;

CHICAGO-MIDWAY PTSUNNY   60  31  33 N13       30.13F
6HR MIN TEMP:  47; 6HR MAX TEMP:  60;

AURORA         FAIR      69  29  22 E21       30.11F
6HR MIN TEMP:  44; 6HR MAX TEMP:  69;

LANSING*       FAIR      52  38  58 N10       30.13F
JOLIET*        FAIR      63  34  33 NE14      30.11F
WAUKEGAN       FAIR      56  30  37 NE12      30.17F
6HR MIN TEMP:  44; 6HR MAX TEMP:  56;

DUPAGE AIRPORT FAIR      65  29  25 NE15G26   30.12F
KANKAKEE*      PTSUNNY   66  37  34 E12G18    30.09F
WHEELING       FAIR      56  29  35 NE10      30.17F
6HR MIN TEMP:  46; 6HR MAX TEMP:  58;

MORRIS*        FAIR      64  32  30 NE10      30.09F
ROMEOVILLE*    FAIR      63  34  34 NE15      30.11F
NORTHERLY ISL    N/A     47  34  60 NW12        N/A
$$

LMZ740>746-231900-
SOUTHERN LAKE MICHIGAN

STATION/POSITION SKY/WX   TEMP    WIND        PRES    VSBY  WAVE
                          AIR SEA DIR/SP/G                  HT/PER
                          (F)     (DEG/KT/KT) (MB)    (MI)  (FT/S)
HARRISON CRIB              41     350/ 14/ 15   N/A
BURNHAM HARBOR             46     330/ 16       N/A
CALUMET HARBOR             45     340/ 15/ 20 1020.1F
BURNS HARBOR               42     350/  3/  5 1020.7F
MICHIGAN CITY              42      20/  6/  7   N/A
ST. JOSEPH                 44 42   20/  8/ 12 1020.7          1/ 3
$$

ILZ025>027-034>036-040-047-049-050-058-095>099-231900-
WEST-CENTRAL ILLINOIS

CITY           SKY/WX    TMP DP  RH WIND       PRES   REMARKS
QUINCY         CLOUDY    67  33  28 NE13G24   30.04F
GALESBURG*     FAIR      71  34  25 NE18      30.09F
MACOMB*        CLOUDY    64  32  31 E16       30.10S
JACKSONVILLE*  PTSUNNY   64  42  43 NE10      30.04F
PITTSFIELD*    CLOUDY    67  42  40 NE13      30.04F
$$

ILZ028>032-037-038-041>044-048-051>054-059>061-231900-
CENTRAL ILLINOIS

CITY           SKY/WX    TMP DP  RH WIND       PRES   REMARKS
PONTIAC        PTSUNNY   69  35  29 NE18      30.07F
BLOOMINGTON    CLOUDY    65  39  38 E20G25    30.08F
DECATUR        CLOUDY    63  51  65 E21       30.03F
PEORIA         CLOUDY    65  36  34 NE10G22   30.07F
6HR MIN TEMP:  48; 6HR MAX TEMP:  66;

LACON*         CLOUDY    62  34  35 NE12      30.08F
LINCOLN*       CLOUDY    64  43  46 E13G20    30.05S
SPRINGFIELD    CLOUDY    64  43  46 NE15      30.04F
6HR MIN TEMP:  50; 6HR MAX TEMP:  65; 6HR PCP: TRACE;

TAYLORVILLE    CLOUDY    59  55  84 E15       30.03F
6HR MIN TEMP:  49; 6HR MAX TEMP:  62;

$$

ILZ033-039-045-046-055>057-062-063-231900-
EAST-CENTRAL ILLINOIS

CITY           SKY/WX    TMP DP  RH WIND       PRES   REMARKS
CHAMPAIGN      CLOUDY    63  49  60 E16       30.06F
DANVILLE*      CLOUDY    65  49  57 E13G20    30.05F
RANTOUL*       CLOUDY    66  47  50 E10G18    30.07F
MATTOON        LGT RAIN  55  54  96 E9        30.02F FOG
PARIS*         LGT RAIN  55  54  97 E14       30.07S
$$

ILZ079-100>102-231900-
SOUTHWEST ILLINOIS

CITY           SKY/WX    TMP DP  RH WIND       PRES   REMARKS
ALTON          CLOUDY    55  55 100 NE14      30.01S
BELLEVILLE     CLOUDY    58  53  83 NE10G20   29.96F
CAHOKIA*       CLOUDY    58  53  84 NE13      29.98F
SPARTA*        CLOUDY    57  57  98 NE14G20   29.95F
$$

ILZ064>066-069>071-074>076-080>082-084>086-088>090-092>094-231900-
SOUTH-CENTRAL ILLINOIS

CITY           SKY/WX    TMP DP  RH WIND       PRES   REMARKS
CARBONDALE     CLOUDY    58  56  93 NE10      29.91F
6HR MIN TEMP:  51; 6HR MAX TEMP:  60; 6HR PCP:  0.03;

CAIRO*         CLOUDY    61  60  94 SE7       29.89R
EFFINGHAM*     CLOUDY    56  55  97 NE10      30.02F
MARION         CLOUDY    61  61 100 E9        29.92F
MT. VERNON       N/A     60  56  86 NE10      29.96F
CENTRALIA*     CLOUDY    61  57  84 E13G22    29.96F
SALEM*         CLOUDY    59  53  83 E6        29.98S
METROPOLIS*    LGT RAIN  61  59  92 S3        29.90S
$$

ILZ067-068-072-073-078-083-087-091-231900-
SOUTHEAST ILLINOIS

CITY           SKY/WX    TMP DP  RH WIND       PRES   REMARKS
LAWRENCEVILLE  CLOUDY    60  55  83 MISG      30.00F
FLORA*         CLOUDY    59  54  82 E12G18    29.99F
FAIRFIELD*     CLOUDY    59  56  87 NE8       29.95F
HARRISBURG*    CLOUDY    62  59  90 E10       29.93F
ROBINSON*      CLOUDY    56  54  94 E14       30.03F
CARMI*         CLOUDY    62  57  83 E14       29.94F
$$

ABBREVIATIONS USED IN REMARKS
   TC - TEMPERATURE IN CELSIUS
  WCI - WIND CHILL INDEX
   HX - HEAT INDEX
  VSB - VISIBILITY
$$




USA.gov is the U.S. government's official web portal to all federal, state and local government web resources and services.